| time (UTC) | temp C | wind direction | speed KPH | gust KPH | rain 1hr cm | rain 24hr cm | rain mn cm | humidity % | barometer mb |
| 20260507223617 | 20 | 58 | 4.8 | 11.3 | 0.00 | 0.00 | 0.00 | 66 | 1016.2 |
| 20260507223111 | 20 | 71 | 4.8 | 12.9 | 0.00 | 0.00 | 0.00 | 65 | 1016.2 |
| 20260507222605 | 20 | 82 | 4.8 | 12.9 | 0.00 | 0.00 | 0.00 | 67 | 1016.3 |
| 20260507222058 | 20 | 85 | 4.8 | 12.9 | 0.00 | 0.00 | 0.00 | 67 | 1016.4 |
| 20260507221552 | 20 | 60 | 4.8 | 14.5 | 0.00 | 0.00 | 0.00 | 65 | 1016.5 |
| 20260507220813 | 20 | 88 | 6.4 | 17.7 | 0.00 | 0.00 | 0.00 | 66 | 1016.4 |
| 20260507220034 | 20 | 80 | 6.4 | 17.7 | 0.00 | 0.00 | 0.00 | 66 | 1016.3 |
| 20260507215528 | 20 | 96 | 6.4 | 14.5 | 0.00 | 0.00 | 0.00 | 67 | 1016.2 |
| 20260507215023 | 20 | 57 | 6.4 | 19.3 | 0.00 | 0.00 | 0.00 | 67 | 1016.2 |
| 20260507214517 | 20 | 69 | 6.4 | 19.3 | 0.00 | 0.00 | 0.00 | 67 | 1016.3 |
| 20260507214011 | 20 | 43 | 6.4 | 17.7 | 0.00 | 0.00 | 0.00 | 69 | 1016.4 |
| 20260507213735 | 20 | 88 | 4.8 | 16.1 | 0.00 | 0.00 | 0.00 | 69 | 1016.6 |
| 20260507213230 | 20 | 87 | 4.8 | 12.9 | 0.00 | 0.00 | 0.00 | 69 | 1016.5 |
| 20260507212452 | 20 | 103 | 4.8 | 12.9 | 0.00 | 0.00 | 0.00 | 69 | 1016.7 |
| 20260507212217 | 20 | 82 | 6.4 | 17.7 | 0.00 | 0.00 | 0.00 | 69 | 1016.7 |
| 20260507211711 | 20 | 65 | 4.8 | 17.7 | 0.00 | 0.00 | 0.00 | 70 | 1016.7 |
| 20260507210935 | 19 | 65 | 6.4 | 17.7 | 0.00 | 0.00 | 0.00 | 70 | 1016.7 |
| 20260507210429 | 19 | 56 | 6.4 | 17.7 | 0.00 | 0.00 | 0.00 | 70 | 1017.2 |
| 20260507205923 | 19 | 32 | 4.8 | 19.3 | 0.00 | 0.00 | 0.00 | 71 | 1017.1 |
| 20260507205416 | 19 | 60 | 4.8 | 19.3 | 0.00 | 0.00 | 0.00 | 72 | 1017.1 |
| 20260507205142 | 19 | 55 | 6.4 | 17.7 | 0.00 | 0.00 | 0.00 | 72 | 1017.0 |
| 20260507204404 | 19 | 62 | 6.4 | 16.1 | 0.00 | 0.00 | 0.00 | 72 | 1017.2 |
| 20260507203858 | 19 | 69 | 6.4 | 16.1 | 0.00 | 0.00 | 0.00 | 72 | 1017.0 |
| 20260507203629 | 19 | 64 | 6.4 | 17.7 | 0.00 | 0.00 | 0.00 | 73 | 1016.3 |
| 20260507202846 | 19 | 15 | 6.4 | 24.1 | 0.00 | 0.00 | 0.00 | 73 | 1016.5 |
| 20260507202340 | 20 | 74 | 6.4 | 24.1 | 0.00 | 0.00 | 0.00 | 73 | 1016.5 |
| 20260507201835 | 20 | 44 | 6.4 | 19.3 | 0.00 | 0.00 | 0.00 | 73 | 1016.5 |
| 20260507201559 | 20 | 71 | 8.0 | 22.5 | 0.00 | 0.00 | 0.00 | 73 | 1016.4 |
| 20260507200823 | 20 | 92 | 8.0 | 22.5 | 0.00 | 0.00 | 0.00 | 74 | 1016.6 |
| 20260507200317 | 19 | 80 | 6.4 | 22.5 | 0.00 | 0.00 | 0.00 | 74 | 1016.4 |
| 20260507195811 | 19 | 19 | 6.4 | 19.3 | 0.00 | 0.00 | 0.00 | 76 | 1016.7 |
| 20260507195306 | 18 | 44 | 6.4 | 19.3 | 0.00 | 0.00 | 0.00 | 76 | 1016.8 |
| 20260507194758 | 18 | 66 | 8.0 | 19.3 | 0.00 | 0.00 | 0.00 | 77 | 1016.6 |
| 20260507193746 | 17 | 49 | 8.0 | 20.9 | 0.00 | 0.00 | 0.00 | 77 | 1017.1 |
| 20260507193254 | 17 | 69 | 6.4 | 19.3 | 0.00 | 0.00 | 0.00 | 77 | 1016.9 |
| 20260507192734 | 17 | 62 | 4.8 | 16.1 | 0.00 | 0.00 | 0.00 | 77 | 1017.1 |
| 20260507192228 | 17 | 44 | 4.8 | 16.1 | 0.00 | 0.00 | 0.00 | 77 | 1017.2 |
| 20260507191722 | 17 | 40 | 4.8 | 16.1 | 0.00 | 0.00 | 0.00 | 78 | 1017.5 |
| 20260507190943 | 17 | 65 | 6.4 | 20.9 | 0.00 | 0.00 | 0.00 | 79 | 1017.4 |
| 20260507190204 | 17 | 64 | 8.0 | 20.9 | 0.00 | 0.00 | 0.00 | 78 | 1017.5 |
| 20260507185701 | 17 | 46 | 4.8 | 19.3 | 0.00 | 0.00 | 0.00 | 78 | 1017.5 |
| 20260507185153 | 17 | 75 | 6.4 | 17.7 | 0.00 | 0.00 | 0.00 | 80 | 1017.0 |
| 20260507184647 | 17 | 71 | 8.0 | 17.7 | 0.00 | 0.00 | 0.00 | 80 | 1016.7 |
| 20260507184411 | 16 | 75 | 8.0 | 17.7 | 0.00 | 0.00 | 0.00 | 79 | 1016.8 |
| 20260507183634 | 16 | 144 | 8.0 | 20.9 | 0.00 | 0.00 | 0.00 | 79 | 1016.9 |
| 20260507183404 | 16 | 58 | 8.0 | 20.9 | 0.00 | 0.00 | 0.00 | 79 | 1017.0 |
| 20260507182630 | 16 | 78 | 6.4 | 20.9 | 0.00 | 0.00 | 0.00 | 79 | 1017.2 |
| 20260507181630 | 16 | 17 | 4.8 | 14.5 | 0.00 | 0.00 | 0.00 | 79 | 1017.9 |
| 20260507181130 | 16 | 61 | 4.8 | 14.5 | 0.00 | 0.00 | 0.00 | 80 | 1017.8 |
| 20260507180631 | 16 | 96 | 4.8 | 16.1 | 0.00 | 0.00 | 0.00 | 80 | 1018.1 |
| 20260507180129 | 16 | 48 | 6.4 | 16.1 | 0.00 | 0.00 | 0.00 | 79 | 1018.2 |
| 20260507175630 | 16 | 50 | 4.8 | 16.1 | 0.00 | 0.00 | 0.00 | 79 | 1018.3 |
| 20260507175400 | 16 | 51 | 4.8 | 14.5 | 0.00 | 0.00 | 0.00 | 79 | 1018.4 |
| 20260507174630 | 16 | 71 | 4.8 | 14.5 | 0.00 | 0.00 | 0.00 | 79 | 1018.5 |
| 20260507174126 | 16 | 50 | 6.4 | 22.5 | 0.00 | 0.00 | 0.00 | 79 | 1018.7 |
| 20260507173626 | 16 | 67 | 6.4 | 22.5 | 0.00 | 0.00 | 0.00 | 78 | 1018.5 |
| 20260507173126 | 17 | 54 | 6.4 | 17.7 | 0.00 | 0.00 | 0.00 | 78 | 1018.6 |
| 20260507172856 | 17 | 38 | 6.4 | 17.7 | 0.00 | 0.00 | 0.00 | 78 | 1018.6 |
| 20260507172126 | 17 | 59 | 6.4 | 17.7 | 0.00 | 0.00 | 0.00 | 78 | 1018.4 |
| 20260507171126 | 17 | 82 | 6.4 | 20.9 | 0.00 | 0.00 | 0.00 | 78 | 1017.9 |
| 20260507170625 | 17 | 74 | 6.4 | 25.7 | 0.00 | 0.00 | 0.00 | 80 | 1018.2 |
| 20260507170125 | 16 | 86 | 6.4 | 25.7 | 0.00 | 0.00 | 0.00 | 80 | 1018.1 |
| 20260507165626 | 16 | 103 | 6.4 | 19.3 | 0.00 | 0.00 | 0.00 | 81 | 1018.2 |
| 20260507164854 | 16 | 67 | 6.4 | 20.9 | 0.00 | 0.00 | 0.00 | 81 | 1018.6 |
| 20260507164123 | 16 | 51 | 8.0 | 20.9 | 0.00 | 0.00 | 0.00 | 82 | 1018.5 |
| 20260507163624 | 16 | 88 | 8.0 | 20.9 | 0.00 | 0.00 | 0.00 | 82 | 1018.4 |
| 20260507163123 | 16 | 40 | 6.4 | 24.1 | 0.00 | 0.00 | 0.00 | 83 | 1018.3 |
| 20260507162621 | 15 | 40 | 4.8 | 24.1 | 0.00 | 0.00 | 0.00 | 83 | 1018.4 |
| 20260507162352 | 15 | 74 | 4.8 | 17.7 | 0.00 | 0.00 | 0.00 | 83 | 1018.6 |
| 20260507161622 | 15 | 41 | 6.4 | 17.7 | 0.00 | 0.00 | 0.00 | 84 | 1018.5 |
| 20260507161120 | 15 | 46 | 6.4 | 17.7 | 0.00 | 0.00 | 0.00 | 83 | 1018.3 |
| 20260507160620 | 15 | 28 | 6.4 | 20.9 | 0.00 | 0.00 | 0.00 | 83 | 1017.9 |
| 20260507160119 | 15 | 89 | 8.0 | 24.1 | 0.00 | 0.00 | 0.00 | 83 | 1018.2 |
| 20260507155617 | 15 | 59 | 9.7 | 24.1 | 0.00 | 0.00 | 0.00 | 83 | 1018.4 |
| 20260507155118 | 15 | 56 | 6.4 | 22.5 | 0.00 | 0.00 | 0.00 | 84 | 1018.4 |
| 20260507154617 | 15 | 55 | 6.4 | 17.7 | 0.00 | 0.00 | 0.00 | 84 | 1018.1 |
| 20260507154119 | 15 | 61 | 6.4 | 17.7 | 0.00 | 0.00 | 0.00 | 84 | 1018.2 |
| 20260507153611 | 15 | 60 | 6.4 | 20.9 | 0.00 | 0.00 | 0.00 | 85 | 1017.9 |
| 20260507153111 | 15 | 93 | 8.0 | 22.5 | 0.00 | 0.00 | 0.00 | 85 | 1017.8 |
| 20260507152612 | 15 | 24 | 8.0 | 22.5 | 0.00 | 0.00 | 0.00 | 84 | 1017.6 |
| 20260507152112 | 15 | 74 | 6.4 | 17.7 | 0.00 | 0.00 | 0.00 | 85 | 1017.7 |
| 20260507151611 | 15 | 33 | 8.0 | 17.7 | 0.00 | 0.00 | 0.00 | 85 | 1017.7 |
| 20260507151111 | 15 | 49 | 8.0 | 32.2 | 0.00 | 0.00 | 0.00 | 85 | 1017.7 |
| 20260507150611 | 15 | 40 | 8.0 | 32.2 | 0.00 | 0.00 | 0.00 | 84 | 1017.7 |
| 20260507150111 | 15 | 104 | 8.0 | 20.9 | 0.00 | 0.00 | 0.00 | 85 | 1017.5 |
| 20260507145612 | 15 | 80 | 8.0 | 20.9 | 0.00 | 0.00 | 0.00 | 85 | 1017.6 |
| 20260507145111 | 15 | 44 | 8.0 | 22.5 | 0.00 | 0.00 | 0.00 | 85 | 1017.8 |
| 20260507144611 | 15 | 71 | 6.4 | 22.5 | 0.00 | 0.00 | 0.00 | 85 | 1017.9 |
| 20260507144111 | 15 | 74 | 6.4 | 17.7 | 0.00 | 0.00 | 0.00 | 86 | 1017.6 |
| 20260507143612 | 15 | 76 | 8.0 | 27.4 | 0.00 | 0.00 | 0.00 | 86 | 1017.5 |
| 20260507143343 | 15 | 34 | 8.0 | 27.4 | 0.00 | 0.00 | 0.00 | 86 | 1017.6 |
| 20260507142611 | 15 | 5 | 8.0 | 22.5 | 0.00 | 0.00 | 0.00 | 86 | 1017.5 |
| 20260507142110 | 15 | 155 | 8.0 | 27.4 | 0.00 | 0.00 | 0.00 | 87 | 1017.4 |
| 20260507141605 | 15 | 48 | 9.7 | 27.4 | 0.00 | 0.00 | 0.00 | 87 | 1017.3 |
| 20260507141059 | 15 | 74 | 8.0 | 24.1 | 0.00 | 0.00 | 0.00 | 87 | 1017.4 |
| 20260507140553 | 15 | 41 | 6.4 | 25.7 | 0.00 | 0.00 | 0.00 | 87 | 1017.6 |
| 20260507140047 | 15 | 95 | 8.0 | 29.0 | 0.00 | 0.00 | 0.00 | 87 | 1017.7 |
| 20260507135540 | 15 | 93 | 9.7 | 29.0 | 0.00 | 0.00 | 0.00 | 87 | 1017.6 |
| 20260507135035 | 15 | 275 | 8.0 | 22.5 | 0.00 | 0.00 | 0.00 | 87 | 1017.5 |
| 20260507134801 | 15 | 5 | 8.0 | 24.1 | 0.00 | 0.00 | 0.00 | 87 | 1017.6 |
| 20260507134022 | 15 | 80 | 6.4 | 25.7 | 0.00 | 0.00 | 0.00 | 87 | 1017.6 |
| 20260507133747 | 15 | 88 | 6.4 | 25.7 | 0.00 | 0.00 | 0.00 | 87 | 1017.7 |
| 20260507133011 | 15 | 55 | 6.4 | 16.1 | 0.00 | 0.00 | 0.00 | 87 | 1017.5 |
| 20260507132505 | 15 | 74 | 6.4 | 20.9 | 0.00 | 0.00 | 0.00 | 86 | 1017.6 |
| 20260507131959 | 15 | 49 | 8.0 | 20.9 | 0.00 | 0.00 | 0.00 | 86 | 1017.7 |
| 20260507131453 | 15 | 40 | 6.4 | 20.9 | 0.00 | 0.00 | 0.00 | 86 | 1017.9 |
| 20260507130948 | 15 | 82 | 6.4 | 20.9 | 0.00 | 0.00 | 0.00 | 85 | 1018.2 |
| 20260507130441 | 15 | 27 | 8.0 | 22.5 | 0.00 | 0.00 | 0.00 | 85 | 1017.8 |
| 20260507125935 | 15 | 19 | 8.0 | 22.5 | 0.00 | 0.00 | 0.00 | 85 | 1017.4 |
| 20260507125433 | 15 | 51 | 8.0 | 25.7 | 0.00 | 0.00 | 0.00 | 84 | 1017.3 |
| 20260507124933 | 15 | 76 | 8.0 | 25.7 | 0.00 | 0.00 | 0.00 | 84 | 1017.5 |
| 20260507124433 | 16 | 117 | 8.0 | 25.7 | 0.00 | 0.00 | 0.00 | 83 | 1017.2 |
| 20260507124204 | 16 | 57 | 6.4 | 24.1 | 0.00 | 0.00 | 0.00 | 83 | 1017.4 |
| 20260507123433 | 16 | 36 | 4.8 | 17.7 | 0.00 | 0.00 | 0.00 | 83 | 1017.2 |
| 20260507122933 | 16 | 35 | 4.8 | 17.7 | 0.00 | 0.00 | 0.00 | 83 | 1017.3 |
| 20260507122707 | 16 | 47 | 6.4 | 19.3 | 0.00 | 0.00 | 0.00 | 83 | 1017.2 |
| 20260507121933 | 16 | 9 | 6.4 | 19.3 | 0.00 | 0.00 | 0.00 | 82 | 1017.1 |
| 20260507121431 | 16 | 38 | 3.2 | 14.5 | 0.00 | 0.00 | 0.00 | 82 | 1017.1 |
| 20260507121202 | 16 | 84 | 3.2 | 19.3 | 0.00 | 0.00 | 0.00 | 82 | 1016.8 |
| 20260507115931 | 16 | 69 | 6.4 | 19.3 | 0.00 | 0.00 | 0.00 | 82 | 1016.5 |
| 20260507115431 | 16 | 141 | 8.0 | 22.5 | 0.00 | 0.00 | 0.00 | 82 | 1016.3 |
| 20260507114929 | 16 | 57 | 8.0 | 27.4 | 0.00 | 0.00 | 0.00 | 82 | 1016.1 |
| 20260507113929 | 16 | 46 | 8.0 | 22.5 | 0.00 | 0.00 | 0.00 | 82 | 1015.9 |
| 20260507113429 | 16 | 60 | 6.4 | 22.5 | 0.00 | 0.00 | 0.00 | 82 | 1016.0 |
| 20260507112925 | 16 | 5 | 4.8 | 16.1 | 0.00 | 0.00 | 0.00 | 82 | 1016.1 |
| 20260507112425 | 16 | 62 | 4.8 | 20.9 | 0.00 | 0.00 | 0.00 | 82 | 1016.0 |
| 20260507111925 | 16 | 62 | 4.8 | 20.9 | 0.00 | 0.00 | 0.00 | 82 | 1016.0 |
| 20260507111425 | 16 | 67 | 4.8 | 17.7 | 0.00 | 0.00 | 0.00 | 82 | 1015.9 |
| 20260507110925 | 16 | 68 | 6.4 | 19.3 | 0.00 | 0.00 | 0.00 | 82 | 1015.8 |
| 20260507110424 | 16 | 67 | 6.4 | 20.9 | 0.00 | 0.00 | 0.00 | 82 | 1015.8 |
| 20260507105925 | 16 | 71 | 6.4 | 20.9 | 0.00 | 0.00 | 0.00 | 82 | 1015.8 |
| 20260507105425 | 16 | 99 | 6.4 | 20.9 | 0.00 | 0.00 | 0.00 | 82 | 1015.6 |
| 20260507104925 | 16 | 46 | 4.8 | 16.1 | 0.00 | 0.00 | 0.00 | 82 | 1015.6 |
| 20260507104425 | 16 | 51 | 4.8 | 19.3 | 0.00 | 0.00 | 0.00 | 82 | 1015.7 |
| 20260507103925 | 16 | 56 | 4.8 | 19.3 | 0.00 | 0.00 | 0.00 | 81 | 1015.7 |
| 20260507103656 | 16 | 78 | 4.8 | 17.7 | 0.00 | 0.00 | 0.00 | 82 | 1015.8 |
| 20260507102925 | 16 | 78 | 6.4 | 17.7 | 0.00 | 0.00 | 0.00 | 81 | 1015.9 |
| 20260507102425 | 16 | 36 | 4.8 | 17.7 | 0.00 | 0.00 | 0.00 | 81 | 1016.0 |
| 20260507101924 | 16 | 26 | 4.8 | 17.7 | 0.00 | 0.00 | 0.00 | 82 | 1015.9 |
| 20260507101424 | 16 | 64 | 3.2 | 16.1 | 0.00 | 0.00 | 0.00 | 82 | 1015.9 |
| 20260507100925 | 16 | 95 | 3.2 | 12.9 | 0.00 | 0.00 | 0.00 | 82 | 1015.8 |
| 20260507100424 | 16 | 38 | 3.2 | 16.1 | 0.00 | 0.00 | 0.00 | 82 | 1015.7 |
| 20260507095918 | 16 | 39 | 4.8 | 16.1 | 0.00 | 0.00 | 0.00 | 82 | 1015.7 |
| 20260507095412 | 16 | 30 | 4.8 | 16.1 | 0.00 | 0.00 | 0.00 | 82 | 1015.8 |
| 20260507094912 | 16 | 74 | 4.8 | 22.5 | 0.00 | 0.00 | 0.00 | 82 | 1015.9 |
| 20260507094410 | 16 | 13 | 4.8 | 22.5 | 0.00 | 0.00 | 0.00 | 82 | 1015.6 |
| 20260507093913 | 16 | 24 | 4.8 | 16.1 | 0.00 | 0.00 | 0.00 | 82 | 1015.7 |
| 20260507093410 | 16 | 85 | 3.2 | 12.9 | 0.00 | 0.00 | 0.00 | 82 | 1015.7 |
| 20260507092911 | 16 | 64 | 3.2 | 12.9 | 0.00 | 0.00 | 0.00 | 82 | 1015.8 |
| 20260507092411 | 16 | 82 | 3.2 | 17.7 | 0.00 | 0.00 | 0.00 | 82 | 1015.8 |
| 20260507091910 | 16 | 80 | 3.2 | 17.7 | 0.00 | 0.00 | 0.00 | 82 | 1015.7 |
| 20260507091410 | 16 | 31 | 3.2 | 12.9 | 0.00 | 0.00 | 0.00 | 82 | 1015.6 |
| 20260507090911 | 16 | 68 | 4.8 | 19.3 | 0.00 | 0.00 | 0.00 | 82 | 1015.7 |
| 20260507090409 | 16 | 26 | 4.8 | 19.3 | 0.00 | 0.00 | 0.00 | 82 | 1015.8 |
| 20260507085909 | 16 | 76 | 4.8 | 14.5 | 0.00 | 0.00 | 0.00 | 82 | 1015.7 |
| 20260507085409 | 16 | 28 | 4.8 | 14.5 | 0.00 | 0.00 | 0.00 | 82 | 1015.6 |
| 20260507084911 | 16 | 49 | 4.8 | 16.1 | 0.00 | 0.00 | 0.00 | 82 | 1015.6 |
| 20260507084639 | 16 | 34 | 4.8 | 16.1 | 0.00 | 0.00 | 0.00 | 82 | 1015.8 |
| 20260507083907 | 17 | 20 | 4.8 | 14.5 | 0.00 | 0.00 | 0.00 | 82 | 1015.7 |
| 20260507083404 | 17 | 68 | 3.2 | 14.5 | 0.00 | 0.00 | 0.00 | 82 | 1015.8 |
| 20260507082903 | 17 | 79 | 4.8 | 17.7 | 0.00 | 0.00 | 0.00 | 82 | 1015.7 |
| 20260507082357 | 17 | 80 | 4.8 | 17.7 | 0.00 | 0.00 | 0.00 | 82 | 1015.7 |
| 20260507081852 | 17 | 84 | 4.8 | 17.7 | 0.00 | 0.00 | 0.00 | 82 | 1015.7 |
| 20260507081346 | 17 | 35 | 3.2 | 14.5 | 0.00 | 0.00 | 0.00 | 82 | 1015.9 |
| 20260507080840 | 17 | 16 | 1.6 | 11.3 | 0.00 | 0.00 | 0.00 | 82 | 1016.1 |
| 20260507080334 | 17 | 58 | 3.2 | 12.9 | 0.00 | 0.00 | 0.00 | 82 | 1015.9 |
| 20260507075828 | 17 | 53 | 3.2 | 17.7 | 0.00 | 0.00 | 0.00 | 82 | 1015.9 |
| 20260507075322 | 17 | 41 | 4.8 | 17.7 | 0.00 | 0.00 | 0.00 | 82 | 1015.9 |
| 20260507074815 | 17 | 45 | 4.8 | 17.7 | 0.00 | 0.00 | 0.00 | 82 | 1015.7 |
| 20260507074310 | 17 | 128 | 4.8 | 17.7 | 0.00 | 0.00 | 0.00 | 82 | 1015.8 |
| 20260507073808 | 17 | 63 | 4.8 | 17.7 | 0.00 | 0.00 | 0.00 | 82 | 1015.9 |
| 20260507073308 | 17 | 41 | 3.2 | 17.7 | 0.00 | 0.00 | 0.00 | 82 | 1016.1 |
| 20260507072307 | 17 | 48 | 4.8 | 17.7 | 0.00 | 0.00 | 0.00 | 82 | 1016.2 |
| 20260507071806 | 17 | 22 | 4.8 | 16.1 | 0.00 | 0.00 | 0.00 | 82 | 1016.1 |
| 20260507071304 | 17 | 49 | 4.8 | 14.5 | 0.00 | 0.00 | 0.00 | 82 | 1016.1 |
| 20260507070807 | 17 | 56 | 4.8 | 14.5 | 0.00 | 0.00 | 0.00 | 82 | 1016.2 |
| 20260507070307 | 17 | 78 | 4.8 | 12.9 | 0.00 | 0.00 | 0.00 | 82 | 1016.2 |
| 20260507070033 | 17 | 61 | 4.8 | 16.1 | 0.00 | 0.00 | 0.00 | 82 | 1016.1 |
| 20260507065301 | 17 | 60 | 3.2 | 12.9 | 0.00 | 0.00 | 0.00 | 82 | 1016.2 |
| 20260507064759 | 17 | 66 | 3.2 | 12.9 | 0.00 | 0.00 | 0.00 | 82 | 1016.1 |
| 20260507064300 | 17 | 62 | 3.2 | 12.9 | 0.00 | 0.00 | 0.00 | 82 | 1016.0 |
| 20260507063758 | 17 | 65 | 3.2 | 6.4 | 0.00 | 0.00 | 0.00 | 82 | 1016.0 |
| 20260507063256 | 17 | 66 | 3.2 | 6.4 | 0.00 | 0.00 | 0.00 | 82 | 1016.1 |
| 20260507063026 | 17 | 66 | 3.2 | 12.9 | 0.00 | 0.00 | 0.00 | 82 | 1016.1 |
| 20260507062255 | 17 | 77 | 4.8 | 14.5 | 0.00 | 0.00 | 0.00 | 82 | 1016.0 |
| 20260507061754 | 17 | 94 | 4.8 | 14.5 | 0.00 | 0.00 | 0.00 | 82 | 1015.9 |
| 20260507061254 | 17 | 63 | 3.2 | 9.7 | 0.00 | 0.00 | 0.00 | 82 | 1015.9 |
| 20260507060254 | 17 | 45 | 4.8 | 20.9 | 0.00 | 0.00 | 0.00 | 82 | 1015.5 |
| 20260507055752 | 17 | 74 | 4.8 | 14.5 | 0.00 | 0.00 | 0.00 | 82 | 1015.4 |
| 20260507055250 | 17 | 78 | 4.8 | 17.7 | 0.00 | 0.00 | 0.00 | 82 | 1015.4 |
| 20260507054748 | 17 | 25 | 6.4 | 17.7 | 0.00 | 0.00 | 0.00 | 82 | 1015.4 |
| 20260507054246 | 17 | 23 | 4.8 | 16.1 | 0.00 | 0.00 | 0.00 | 82 | 1015.2 |
| 20260507053746 | 17 | 57 | 4.8 | 14.5 | 0.00 | 0.00 | 0.00 | 82 | 1015.2 |
| 20260507053246 | 17 | 43 | 4.8 | 19.3 | 0.00 | 0.00 | 0.00 | 82 | 1015.0 |
| 20260507052746 | 17 | 0 | 3.2 | 19.3 | 0.00 | 0.00 | 0.00 | 82 | 1014.9 |
| 20260507052246 | 17 | 0 | 4.8 | 19.3 | 0.00 | 0.00 | 0.00 | 83 | 1015.0 |
| 20260507051744 | 17 | 111 | 4.8 | 19.3 | 0.00 | 0.00 | 0.00 | 83 | 1014.8 |
| 20260507051244 | 17 | 47 | 6.4 | 24.1 | 0.00 | 0.00 | 0.00 | 83 | 1014.7 |
| 20260507050744 | 17 | 61 | 6.4 | 24.1 | 0.00 | 0.00 | 0.00 | 83 | 1014.6 |
| 20260507050243 | 17 | 50 | 6.4 | 20.9 | 0.00 | 0.00 | 0.00 | 83 | 1014.8 |
| 20260507050014 | 17 | 59 | 6.4 | 20.9 | 0.00 | 0.00 | 0.00 | 83 | 1014.7 |
| 20260507045244 | 17 | 50 | 4.8 | 14.5 | 0.00 | 0.00 | 0.00 | 83 | 1014.9 |
| 20260507045014 | 17 | 25 | 4.8 | 14.5 | 0.00 | 0.00 | 0.00 | 83 | 1014.8 |
| 20260507044514 | 17 | 57 | 4.8 | 17.7 | 0.00 | 0.00 | 0.00 | 83 | 1014.6 |
| 20260507043743 | 17 | 78 | 6.4 | 17.7 | 0.00 | 0.00 | 0.00 | 83 | 1014.7 |
| 20260507043237 | 17 | 61 | 6.4 | 22.5 | 0.00 | 0.00 | 0.00 | 83 | 1015.0 |
| 20260507042731 | 17 | 76 | 6.4 | 22.5 | 0.00 | 0.00 | 0.00 | 83 | 1015.0 |
| 20260507042225 | 17 | 55 | 6.4 | 20.9 | 0.00 | 0.00 | 0.00 | 83 | 1015.0 |
| 20260507041719 | 17 | 72 | 6.4 | 24.1 | 0.00 | 0.00 | 0.00 | 83 | 1014.9 |
| 20260507041213 | 17 | 44 | 4.8 | 24.1 | 0.00 | 0.00 | 0.00 | 83 | 1014.8 |
| 20260507040707 | 17 | 50 | 4.8 | 14.5 | 0.00 | 0.00 | 0.00 | 83 | 1014.6 |
| 20260507040202 | 17 | 46 | 4.8 | 14.5 | 0.00 | 0.00 | 0.00 | 83 | 1014.5 |
| 20260507035655 | 17 | 336 | 3.2 | 14.5 | 0.00 | 0.00 | 0.00 | 83 | 1014.3 |
| 20260507035149 | 17 | 46 | 4.8 | 17.7 | 0.00 | 0.00 | 0.00 | 83 | 1014.3 |
| 20260507034642 | 17 | 11 | 3.2 | 17.7 | 0.00 | 0.00 | 0.00 | 82 | 1014.2 |
| 20260507034137 | 17 | 355 | 1.6 | 9.7 | 0.00 | 0.00 | 0.00 | 82 | 1014.3 |
| 20260507033631 | 17 | 53 | 1.6 | 14.5 | 0.00 | 0.00 | 0.00 | 82 | 1014.1 |
| 20260507033125 | 17 | 57 | 1.6 | 14.5 | 0.00 | 0.00 | 0.00 | 82 | 1014.1 |
| 20260507032619 | 17 | 32 | 3.2 | 16.1 | 0.00 | 0.00 | 0.00 | 82 | 1014.0 |
| 20260507031607 | 17 | 41 | 4.8 | 22.5 | 0.00 | 0.00 | 0.00 | 82 | 1013.9 |
| 20260507031101 | 17 | 343 | 3.2 | 22.5 | 0.00 | 0.00 | 0.00 | 82 | 1014.0 |
| 20260507030555 | 17 | 51 | 3.2 | 17.7 | 0.00 | 0.00 | 0.00 | 82 | 1014.0 |
| 20260507030048 | 17 | 79 | 3.2 | 17.7 | 0.00 | 0.00 | 0.00 | 82 | 1014.0 |
| 20260507025543 | 17 | 303 | 3.2 | 14.5 | 0.00 | 0.00 | 0.00 | 82 | 1014.1 |
| 20260507025036 | 17 | 33 | 4.8 | 17.7 | 0.00 | 0.00 | 0.00 | 82 | 1014.0 |
| 20260507024530 | 17 | 44 | 3.2 | 17.7 | 0.00 | 0.00 | 0.00 | 81 | 1014.0 |
| 20260507024025 | 17 | 283 | 3.2 | 17.7 | 0.00 | 0.00 | 0.00 | 81 | 1013.9 |
| 20260507023751 | 18 | 44 | 3.2 | 17.7 | 0.00 | 0.00 | 0.00 | 81 | 1014.0 |
| 20260507023244 | 18 | 30 | 3.2 | 20.9 | 0.00 | 0.00 | 0.00 | 81 | 1013.9 |
| 20260507022738 | 18 | 26 | 3.2 | 20.9 | 0.00 | 0.00 | 0.00 | 81 | 1013.8 |
| 20260507022001 | 18 | 32 | 3.2 | 16.1 | 0.00 | 0.00 | 0.00 | 81 | 1013.9 |
| 20260507021455 | 18 | 355 | 4.8 | 20.9 | 0.00 | 0.00 | 0.00 | 81 | 1013.8 |
| 20260507020949 | 18 | 69 | 4.8 | 20.9 | 0.00 | 0.00 | 0.00 | 81 | 1013.8 |
| 20260507020713 | 18 | 15 | 3.2 | 12.9 | 0.00 | 0.00 | 0.00 | 80 | 1013.8 |
| 20260507015937 | 18 | 29 | 3.2 | 14.5 | 0.00 | 0.00 | 0.00 | 80 | 1013.6 |
| 20260507015431 | 18 | 311 | 3.2 | 17.7 | 0.00 | 0.00 | 0.00 | 80 | 1013.2 |
| 20260507014925 | 18 | 355 | 4.8 | 17.7 | 0.00 | 0.00 | 0.00 | 80 | 1013.2 |
| 20260507014419 | 18 | 51 | 4.8 | 16.1 | 0.00 | 0.00 | 0.00 | 80 | 1012.9 |
| 20260507013407 | 18 | 52 | 6.4 | 25.7 | 0.00 | 0.00 | 0.00 | 80 | 1013.0 |
| 20260507013132 | 18 | 17 | 6.4 | 25.7 | 0.00 | 0.00 | 0.00 | 79 | 1012.9 |
| 20260507012626 | 18 | 44 | 4.8 | 17.7 | 0.00 | 0.00 | 0.00 | 79 | 1013.0 |
| 20260507011851 | 19 | 28 | 4.8 | 19.3 | 0.00 | 0.00 | 0.00 | 79 | 1013.1 |
| 20260507011351 | 19 | 27 | 4.8 | 19.3 | 0.00 | 0.00 | 0.00 | 79 | 1013.2 |
| 20260507011122 | 19 | 34 | 1.6 | 12.9 | 0.00 | 0.00 | 0.00 | 78 | 1012.9 |
| 20260507010354 | 19 | 26 | 3.2 | 16.1 | 0.00 | 0.00 | 0.00 | 78 | 1013.0 |
| 20260507005851 | 19 | 344 | 6.4 | 20.9 | 0.00 | 0.00 | 0.00 | 78 | 1012.6 |
| 20260507005349 | 20 | 37 | 6.4 | 22.5 | 0.00 | 0.00 | 0.00 | 78 | 1012.5 |
| 20260507004347 | 20 | 51 | 6.4 | 22.5 | 0.00 | 0.00 | 0.00 | 77 | 1012.5 |
| 20260507003847 | 20 | 38 | 8.0 | 22.5 | 0.00 | 0.00 | 0.00 | 77 | 1012.6 |
| 20260507003347 | 20 | 29 | 6.4 | 22.5 | 0.00 | 0.00 | 0.00 | 76 | 1012.5 |
| 20260507002847 | 20 | 5 | 6.4 | 22.5 | 0.00 | 0.00 | 0.00 | 76 | 1012.2 |
| 20260507002347 | 21 | 17 | 4.8 | 22.5 | 0.00 | 0.00 | 0.00 | 75 | 1012.5 |
| 20260507001843 | 21 | 54 | 3.2 | 14.5 | 0.00 | 0.00 | 0.00 | 75 | 1012.5 |
| 20260507001615 | 21 | 49 | 4.8 | 14.5 | 0.00 | 0.00 | 0.00 | 75 | 1012.4 |
| 20260507001115 | 21 | 76 | 4.8 | 16.1 | 0.00 | 0.00 | 0.00 | 75 | 1012.1 |
| 20260507000343 | 21 | 30 | 4.8 | 17.7 | 0.00 | 0.00 | 0.00 | 75 | 1011.9 |
| 20260506235842 | 21 | 34 | 6.4 | 17.7 | 0.00 | 0.00 | 0.00 | 75 | 1012.1 |
| 20260506235342 | 21 | 53 | 6.4 | 19.3 | 0.00 | 0.00 | 0.00 | 74 | 1011.8 |
| 20260506234843 | 22 | 53 | 4.8 | 19.3 | 0.00 | 0.00 | 0.00 | 74 | 1011.7 |
| 20260506234343 | 22 | 74 | 4.8 | 17.7 | 0.00 | 0.00 | 0.00 | 74 | 1011.8 |
| 20260506233843 | 22 | 51 | 4.8 | 19.3 | 0.00 | 0.00 | 0.00 | 73 | 1011.6 |
| 20260506233343 | 22 | 67 | 6.4 | 19.3 | 0.00 | 0.00 | 0.00 | 73 | 1011.6 |
| 20260506232842 | 22 | 37 | 8.0 | 17.7 | 0.00 | 0.00 | 0.00 | 72 | 1011.5 |
| 20260506232342 | 23 | 79 | 6.4 | 17.7 | 0.00 | 0.00 | 0.00 | 72 | 1011.3 |
| 20260506231842 | 23 | 36 | 6.4 | 20.9 | 0.00 | 0.00 | 0.00 | 71 | 1011.2 |
| 20260506231613 | 23 | 37 | 6.4 | 20.9 | 0.00 | 0.00 | 0.00 | 70 | 1011.3 |
| 20260506231114 | 24 | 82 | 6.4 | 16.1 | 0.00 | 0.00 | 0.00 | 70 | 1011.2 |
| 20260506230341 | 24 | 34 | 6.4 | 19.3 | 0.00 | 0.00 | 0.00 | 69 | 1011.3 |
| 20260506225841 | 25 | 344 | 6.4 | 19.3 | 0.00 | 0.00 | 0.00 | 68 | 1011.1 |
| 20260506225341 | 25 | 119 | 8.0 | 22.5 | 0.00 | 0.00 | 0.00 | 67 | 1011.1 |
| 20260506224841 | 26 | 53 | 8.0 | 22.5 | 0.00 | 0.00 | 0.00 | 66 | 1011.0 |
| 20260506224339 | 26 | 43 | 6.4 | 20.9 | 0.00 | 0.00 | 0.00 | 66 | 1010.9 |